Hurlburt Field, FL

3:09 AM CST on February 20, 2017 (GMT -0600)
Hurlburt

Weather History for KHRT - October, 2011

Change the Weather History Date:

Sunday, October 30, 2011

  Actual Average Record
Temperature  
Mean Temperature 53 °F -  
Max Temperature 67 °F 74 °F 83 °F (2016)
Min Temperature 39 °F 55 °F 37 °F (2008)
Degree Days  
Heating Degree Days 12    
Growing Degree Days 3 (Base 50)    
Moisture  
Dew Point 38 °F    
Average Humidity 56    
Maximum Humidity 84    
Minimum Humidity 33    
Precipitation  
Precipitation 0.00 in - - ()
Sea Level Pressure  
Sea Level Pressure 30.17 in    
Wind  
Wind Speed 7 mph (ENE)    
Max Wind Speed 16 mph    
Max Gust Speed 22 mph    
Visibility 10 miles    
Events Rain    
Averages and records for this station are not official NWS values.
T = Trace of Precipitation, MM = Missing Value Source: NWS Daily Summary

Daily Weather History Graph

Daily Weather History Graph

Search for Another Location

Airport or City:

Trip Planner

Search our weather history database for the weather conditions in past years. The results will help you decide how hot, cold, wet, or windy it might be!

Date:

Astronomy

Oct. 30, 2011 Rise Set
Actual Time 6:59 AM CDT 6:00 PM CDT
Civil Twilight 6:34 AM CDT 6:25 PM CDT
Nautical Twilight 6:06 AM CDT 6:53 PM CDT
Astronomical Twilight 5:38 AM CDT 7:22 PM CDT
Moon 11:06 AM CDT (10/30) 9:40 PM CDT (10/30)
Length of Visible Light 11h 50m
Length of Day
11h 01m
Waxing Crescent, 20% of the Moon is Illuminated
Oct 30
Waxing Crescent
Nov 2
First Quarter
Nov 10
Full
Nov 18
Last Quarter
Nov 25
New

Hourly Weather History & Observations

Time (CDT) Temp. Windchill Dew Point Humidity Pressure Visibility Wind Dir Wind Speed Gust Speed Precip Events Conditions
12:55 AM 39.9 °F 35.8 °F 35.1 °F 83% 30.15 in 10.0 mi North 5.8 mph - N/A   Clear
1:55 AM 39.2 °F 35.9 °F 34.2 °F 82% 30.15 in 10.0 mi NE 4.6 mph - N/A   Clear
2:55 AM 44.4 °F 40.5 °F 34.2 °F 67% 30.15 in 10.0 mi NE 6.9 mph - N/A   Clear
3:55 AM 41.0 °F 37.1 °F 33.6 °F 75% 30.15 in 10.0 mi NNE 5.8 mph - N/A   Clear
4:55 AM 40.5 °F 35.8 °F 33.6 °F 77% 30.16 in 10.0 mi NE 6.9 mph - N/A   Clear
5:55 AM 42.3 °F 37.3 °F 33.8 °F 72% 30.17 in 10.0 mi NE 8.1 mph - N/A   Clear
6:55 AM 41.9 °F 36.9 °F 33.6 °F 72% 30.19 in 10.0 mi NE 8.1 mph - N/A   Clear
7:55 AM 45.0 °F 41.2 °F 34.7 °F 67% 30.21 in 10.0 mi NE 6.9 mph - N/A   Clear
8:55 AM 52.2 °F - 37.0 °F 56% 30.22 in 10.0 mi ENE 9.2 mph - N/A   Clear
9:02 AM 53.6 °F - 37.4 °F 54% 30.22 in 10.0 mi ENE 8.1 mph - N/A   Light Drizzle
9:17 AM 55.4 °F - 35.6 °F 47% 30.22 in 10.0 mi ENE 9.2 mph - N/A   Clear
9:55 AM 57.9 °F - 35.2 °F 43% 30.22 in 10.0 mi East 13.8 mph - 0.00 in   Clear
10:55 AM 62.4 °F - 38.8 °F 42% 30.21 in 10.0 mi East 15.0 mph 20.7 mph N/A   Clear
11:55 AM 64.6 °F - 39.2 °F 39% 30.20 in 10.0 mi East 16.1 mph 21.9 mph N/A   Clear
12:55 PM 66.7 °F - 44.4 °F 44% 30.18 in 10.0 mi East 12.7 mph - N/A   Clear
1:55 PM 66.4 °F - 42.3 °F 41% 30.17 in 10.0 mi East 9.2 mph - N/A   Clear
2:55 PM 66.7 °F - 40.5 °F 38% 30.15 in 10.0 mi ENE 4.6 mph - N/A   Clear
3:36 PM 66.2 °F - 39.2 °F 37% 30.14 in 10.0 mi ESE 5.8 mph - N/A Rain Light Rain
3:41 PM 66.2 °F - 39.2 °F 37% 30.14 in 10.0 mi East 3.5 mph - N/A   Clear
3:55 PM 67.5 °F - 37.6 °F 33% 30.14 in 10.0 mi ENE 5.8 mph - 0.00 in   Clear
4:19 PM 66.2 °F - 37.4 °F 35% 30.14 in 10.0 mi ENE 6.9 mph - N/A   Light Drizzle
4:22 PM 66.2 °F - 39.2 °F 37% 30.14 in 10.0 mi East 5.8 mph - N/A   Clear
4:55 PM 65.1 °F - 38.7 °F 38% 30.15 in 10.0 mi East 5.8 mph - 0.00 in   Clear
5:55 PM 63.0 °F - 38.3 °F 40% 30.15 in 10.0 mi East 4.6 mph - 0.00 in Rain Light Rain
6:04 PM 62.6 °F - 39.2 °F 42% 30.16 in 10.0 mi Calm Calm - N/A   Clear
6:55 PM 53.8 °F - 46.9 °F 78% 30.18 in 10.0 mi North 6.9 mph - 0.00 in   Clear
7:55 PM 52.5 °F - 42.3 °F 68% 30.18 in 10.0 mi NNE 4.6 mph - N/A   Clear
8:55 PM 48.7 °F - 44.1 °F 84% 30.17 in 10.0 mi NNE 6.9 mph - N/A   Clear
9:55 PM 50.4 °F - 40.3 °F 68% 30.19 in 10.0 mi North 5.8 mph - N/A   Clear
10:55 PM 47.5 °F - 39.4 °F 73% 30.18 in 10.0 mi NNE 4.6 mph - N/A   Clear
11:55 PM 50.9 °F - 36.0 °F 57% 30.18 in 10.0 mi NE 4.6 mph - N/A   Clear